FW1786 Weather Reports


Display with metric or nautical units.
time (UTC)temp
F
wind
direction
speed
MPH
gust
MPH
rain 1hr
in
rain 24hr
in
rain mn
in
humidity
%
barometer
mb
20260903181524 96 213 2.0 7.0 0.00 0.00 0.00 40 1014.9
20260903180023 95 217 4.0 11.0 0.00 0.00 0.00 41 1015.2
20260903174505 95 281 1.0 5.0 0.00 0.00 0.00 43 1015.4
20260903173008 94 182 2.0 10.0 0.00 0.00 0.00 43 1015.6
20260903171508 93 227 4.0 13.0 0.00 0.00 0.00 44 1015.9
20260903170016 93 254 2.0 9.0 0.00 0.00 0.00 47 1016.0
20260903164514 92 221 2.0 9.0 0.00 0.00 0.00 47 1016.2
20260903163014 90 317 2.0 8.0 0.00 0.00 0.00 49 1016.3
20260903161516 90 304 3.0 8.0 0.00 0.00 0.00 51 1016.4
20260903160028 89 247 1.0 9.0 0.00 0.00 0.00 52 1016.3
20260903154504 88 206 3.0 8.0 0.00 0.00 0.00 54 1016.5
20260903153007 87 281 2.0 6.0 0.00 0.00 0.00 57 1016.5
20260903151506 86 181 1.0 7.0 0.00 0.00 0.00 59 1016.6
20260903150027 84 182 1.0 4.0 0.00 0.00 0.00 65 1016.7
20260903144540 82 207 1.0 6.0 0.00 0.00 0.00 68 1016.8
20260903143006 81 175 1.0 4.0 0.00 0.00 0.00 72 1017.0
20260903141513 78 169 0.0 4.0 0.00 0.00 0.00 1017.1
20260903140010 75 123 1.0 2.0 0.00 0.00 0.00 84 1017.2
20260903134505 74 184 0.0 2.0 0.00 0.00 0.00 86 1017.2
20260903133008 73 227 0.0 1.0 0.00 0.00 0.00 87 1017.3
20260903131510 71 232 0.0 1.0 0.00 0.00 0.00 89 1017.4
20260903130019 70 238 0.0 1.0 0.00 0.00 0.00 91 1017.3
20260903124518 69 238 0.0 1.0 0.00 0.00 0.00 92 1017.2
20260903123016 69 238 0.0 1.0 0.00 0.00 0.00 92 1017.1
20260903121526 69 231 0.0 0.0 0.00 0.00 0.00 92 1017.1
20260903120019 69 231 0.0 1.0 0.00 0.00 0.00 91 1017.0
20260903114513 69 231 0.0 0.0 0.00 0.00 0.00 92 1017.0
20260903113019 69 231 0.0 1.0 0.00 0.00 0.00 92 1016.8
20260903111516 69 222 0.0 1.0 0.00 0.00 0.00 91 1016.6
20260903110019 69 222 0.0 0.0 0.00 0.00 0.00 91 1016.6
20260903104516 69 222 0.0 0.0 0.00 0.00 0.00 91 1016.6
20260903103023 70 223 0.0 1.0 0.00 0.00 0.00 90 1016.4
20260903101526 70 222 0.0 1.0 0.00 0.00 0.00 90 1016.3
20260903100022 70 234 0.0 1.0 0.00 0.00 0.00 90 1016.4
20260903094543 71 234 0.0 1.0 0.00 0.00 0.00 90 1016.5
20260903093032 71 234 0.0 1.0 0.00 0.00 0.00 89 1016.3
20260903091525 71 234 0.0 0.0 0.00 0.00 0.00 89 1016.3
20260903090018 71 234 0.0 0.0 0.00 0.00 0.00 89 1016.2
20260903084516 71 234 0.0 0.0 0.00 0.00 0.00 89 1016.2
20260903083024 71 234 0.0 0.0 0.00 0.00 0.00 88 1016.2
20260903081530 72 234 0.0 0.0 0.00 0.00 0.00 88 1016.0
20260903080027 72 234 0.0 1.0 0.00 0.00 0.00 88 1015.9
20260903074526 72 234 0.0 1.0 0.00 0.00 0.00 87 1015.8
20260903073030 73 234 0.0 1.0 0.00 0.00 0.00 86 1015.9
20260903071529 73 318 0.0 2.0 0.00 0.00 0.00 87 1015.9
20260903070033 73 10 0.0 1.0 0.00 0.00 0.00 1015.8
20260903064531 74 41 0.0 1.0 0.00 0.00 0.00 84 1015.8
20260903063028 74 40 0.0 0.0 0.00 0.00 0.00 1015.7
20260903061525 74 45 0.0 1.0 0.00 0.00 0.00 83 1015.8
20260903060001 75 55 0.0 2.0 0.00 0.00 0.00 81 1015.8
20260903054502 75 27 0.0 1.0 0.00 0.00 0.00 81 1015.8
20260903053001 76 60 0.0 1.0 0.00 0.00 0.00 80 1015.7
20260903051503 76 66 0.0 2.0 0.00 0.00 0.00 79 1015.7
20260903050009 77 39 0.0 1.0 0.00 0.00 0.00 78 1015.6
20260903044504 77 34 0.0 2.0 0.00 0.00 0.00 77 1015.5
20260903043005 78 321 0.0 2.0 0.00 0.00 0.00 75 1015.7
20260903041506 79 36 0.0 2.0 0.00 0.00 0.00 73 1015.8
20260903040013 79 352 0.0 2.0 0.00 0.00 0.00 73 1015.6
20260903034501 81 54 0.0 2.0 0.00 0.00 0.00 70 1015.5
20260903033013 81 30 0.0 2.0 0.00 0.00 0.00 69 1015.6
20260903031504 81 13 0.0 1.0 0.00 0.00 0.00 68 1015.5
20260903030004 82 95 0.0 3.0 0.00 0.00 0.00 67 1015.5
20260903024507 82 111 0.0 1.0 0.00 0.00 0.00 65 1015.6
20260903023004 83 111 0.0 2.0 0.00 0.00 0.00 63 1015.3
20260903021505 84 144 0.0 2.0 0.00 0.00 0.00 62 1015.3
20260903020011 84 228 0.0 2.0 0.00 0.00 0.00 61 1015.1
20260903014511 85 187 0.0 2.0 0.00 0.00 0.00 59 1014.9
20260903013008 86 286 0.0 3.0 0.00 0.00 0.00 57 1014.7
20260903011512 86 268 0.0 1.0 0.00 0.00 0.00 57 1014.6
20260903010007 87 304 1.0 2.0 0.00 0.00 0.00 54 1014.5
20260903004507 88 329 0.0 4.0 0.00 0.00 0.00 52 1014.5
20260903003010 90 250 2.0 5.0 0.00 0.00 0.00 49 1014.4
20260903001516 92 192 2.0 6.0 0.00 0.00 0.00 46 1014.3
20260903000009 93 221 2.0 4.0 0.00 0.00 0.00 43 1014.2
20260902234505 94 208 2.0 5.0 0.00 0.00 0.00 42 1014.2
20260902233005 95 275 2.0 4.0 0.00 0.00 0.00 41 1014.1
20260902231510 95 198 1.0 5.0 0.00 0.00 0.00 40 1014.2
20260902230018 95 211 1.0 4.0 0.00 0.00 0.00 42 1014.2
20260902224528 97 182 2.0 6.0 0.00 0.00 0.00 38 1014.3
20260902223015 97 242 2.0 7.0 0.00 0.00 0.00 38 1014.6
20260902221516 98 275 3.0 8.0 0.00 0.00 0.00 37 1014.5
20260902220008 99 224 3.0 8.0 0.00 0.00 0.00 34 1014.5
20260902214524 99 206 3.0 7.0 0.00 0.00 0.00 35 1014.5
20260902213023 98 179 0.0 8.0 0.00 0.00 0.00 37 1014.6
20260902211508 98 275 1.0 6.0 0.00 0.00 0.00 37 1014.7
20260902210014 99 352 1.0 9.0 0.00 0.00 0.00 37 1014.6
20260902204516 98 230 0.0 7.0 0.00 0.00 0.00 36 1014.9
20260902203009 98 177 1.0 6.0 0.00 0.00 0.00 35 1015.1
20260902201528 99 360 1.0 6.0 0.00 0.00 0.00 34 1015.1
20260902200010 99 237 2.0 6.0 0.00 0.00 0.00 33 1015.4
20260902194523 98 279 1.0 7.0 0.00 0.00 0.00 34 1015.7
20260902193024 98 264 4.0 9.0 0.00 0.00 0.00 36 1015.8
20260902191512 97 300 2.0 5.0 0.00 0.00 0.00 38 1016.0
20260902190017 99 235 1.0 7.0 0.00 0.00 0.00 33 1016.3
20260902184511 99 237 2.0 8.0 0.00 0.00 0.00 35 1016.5
20260902183004 98 304 1.0 9.0 0.00 0.00 0.00 33 1016.7